Hoquiam, WA

10:41 AM PDT on August 24, 2016 (GMT -0700)
Bowerman

Weather History for KHQM - October, 2012

Change the Weather History Date:

Monday, October 29, 2012

  Actual Average Record
Temperature  
Mean Temperature 55 °F 49 °F  
Max Temperature 57 °F 55 °F 70 °F (1962)
Min Temperature 53 °F 43 °F 29 °F (1971)
Degree Days  
Heating Degree Days 10 16  
Month to date heating degree days 362  
Cooling Degree Days 0 0  
Month to date cooling degree days 0  
Year to date cooling degree days 23  
Growing Degree Days 5 (Base 50)    
Moisture  
Dew Point 54 °F    
Average Humidity 97    
Maximum Humidity 100    
Minimum Humidity 93    
Precipitation  
Precipitation 0.30 in 0.30 in 1.70 in (1975)
Month to date precipitation 5.91  
Year to date precipitation 45.80  
Sea Level Pressure  
Sea Level Pressure 29.91 in    
Wind  
Wind Speed 12 mph (South)    
Max Wind Speed 23 mph    
Max Gust Speed 31 mph    
Visibility 4 miles    
Events Rain    
T = Trace of Precipitation, MM = Missing Value Source: NWS Daily Summary

Daily Weather History Graph

Daily Weather History Graph

Search for Another Location

Airport or City:

Trip Planner

Search our weather history database for the weather conditions in past years. The results will help you decide how hot, cold, wet, or windy it might be!

Date:

Astronomy

Oct. 29, 2012 Rise Set
Actual Time 7:54 AM PDT 6:03 PM PDT
Civil Twilight 7:23 AM PDT 6:34 PM PDT
Nautical Twilight 6:47 AM PDT 7:10 PM PDT
Astronomical Twilight 6:12 AM PDT 7:45 PM PDT
Moon 5:55 PM PDT (10/29) 7:52 AM PDT (10/29)
Length of Visible Light 11h 11m
Length of Day
10h 08m
Full, 100% of the Moon is Illuminated
Oct 29
Full
Oct 29
Full
Nov 6
Last Quarter
Nov 13
New
Nov 20
First Quarter

Hourly Weather History & Observations

Time (PDT) Temp. Dew Point Humidity Pressure Visibility Wind Dir Wind Speed Gust Speed Precip Events Conditions
12:06 AM 53.6 °F 53.6 °F 100% 29.75 in 2.0 mi NE 5.8 mph - 0.08 in Rain Rain
12:37 AM 53.6 °F 53.6 °F 100% 29.75 in 3.0 mi ENE 3.5 mph - 0.18 in Rain Light Rain
12:53 AM 53.1 °F 52.0 °F 96% 29.76 in 2.0 mi East 8.1 mph - 0.20 in Rain Light Rain
1:03 AM 53.6 °F 51.8 °F 94% 29.75 in 1.8 mi East 5.8 mph - 0.02 in Rain Light Rain
1:17 AM 53.6 °F 53.6 °F 100% 29.75 in 2.0 mi ENE 4.6 mph - 0.04 in Rain Light Rain
1:28 AM 55.4 °F 55.4 °F 100% 29.75 in 4.0 mi SSW 9.2 mph - 0.05 in Rain Light Rain
1:53 AM 57.0 °F 55.9 °F 96% 29.75 in 3.0 mi South 19.6 mph - 0.05 in   Overcast
2:34 AM 57.2 °F 55.4 °F 94% 29.75 in 4.0 mi South 20.7 mph 31.1 mph N/A   Overcast
2:49 AM 57.2 °F 55.4 °F 94% 29.75 in 2.5 mi South 21.9 mph - 0.01 in   Overcast
2:53 AM 57.0 °F 55.9 °F 96% 29.76 in 2.5 mi South 20.7 mph 27.6 mph 0.01 in   Overcast
3:10 AM 57.2 °F 55.4 °F 94% 29.76 in 3.0 mi South 17.3 mph 26.5 mph N/A   Overcast
3:13 AM 57.2 °F 55.4 °F 94% 29.76 in 2.5 mi South 18.4 mph 26.5 mph N/A   Overcast
3:22 AM 57.2 °F 55.4 °F 94% 29.76 in 3.0 mi South 19.6 mph - N/A   Overcast
3:29 AM 57.2 °F 55.4 °F 94% 29.76 in 4.0 mi South 18.4 mph - N/A   Overcast
3:36 AM 57.2 °F 55.4 °F 94% 29.75 in 4.0 mi South 20.7 mph 26.5 mph N/A   Overcast
3:45 AM 57.2 °F 55.4 °F 94% 29.75 in 6.0 mi South 18.4 mph 27.6 mph N/A   Overcast
3:53 AM 57.0 °F 55.9 °F 96% 29.76 in 5.0 mi South 21.9 mph - N/A   Overcast
4:44 AM 57.2 °F 55.4 °F 94% 29.75 in 4.0 mi South 23.0 mph 28.8 mph N/A   Overcast
4:53 AM 57.0 °F 55.9 °F 96% 29.77 in 2.5 mi South 20.7 mph 28.8 mph N/A   Overcast
5:32 AM 57.2 °F 55.4 °F 94% 29.78 in 3.0 mi SSW 23.0 mph - N/A   Overcast
5:53 AM 55.9 °F 55.0 °F 97% 29.81 in 3.0 mi SSW 17.3 mph 29.9 mph N/A   Overcast
6:00 AM 55.4 °F 55.4 °F 100% 29.80 in 2.0 mi SSW 16.1 mph - N/A   Overcast
6:13 AM 55.4 °F 55.4 °F 100% 29.80 in 3.0 mi SSW 19.6 mph - N/A   Overcast
6:25 AM 55.4 °F 55.4 °F 100% 29.81 in 2.5 mi SSW 15.0 mph - N/A   Overcast
6:33 AM 55.4 °F 55.4 °F 100% 29.81 in 4.0 mi SSW 23.0 mph 28.8 mph N/A   Overcast
6:53 AM 55.9 °F 55.0 °F 97% 29.84 in 4.0 mi SSW 19.6 mph - N/A   Overcast
7:02 AM 55.4 °F 55.4 °F 100% 29.83 in 2.0 mi SSW 18.4 mph - N/A   Overcast
7:21 AM 55.4 °F 53.6 °F 94% 29.84 in 5.0 mi SSW 19.6 mph 28.8 mph 0.01 in   Overcast
7:53 AM 55.9 °F 54.0 °F 93% 29.87 in 9.0 mi SSW 18.4 mph - 0.01 in   Overcast
7:56 AM 55.4 °F 53.6 °F 94% 29.86 in 10.0 mi SSW 17.3 mph - N/A   Overcast
8:53 AM 55.0 °F 54.0 °F 96% 29.91 in 5.0 mi SSW 17.3 mph - N/A   Overcast
9:30 AM 55.4 °F 53.6 °F 94% 29.92 in 3.0 mi SSW 16.1 mph - N/A   Overcast
9:36 AM 55.4 °F 53.6 °F 94% 29.93 in 3.0 mi SSW 16.1 mph - N/A   Overcast
9:53 AM 55.0 °F 53.1 °F 93% 29.95 in 8.0 mi SSW 16.1 mph - N/A   Overcast
10:02 AM 55.4 °F 53.6 °F 94% 29.94 in 4.0 mi SW 19.6 mph 27.6 mph N/A   Overcast
10:53 AM 55.0 °F 53.1 °F 93% 29.98 in 10.0 mi SSW 13.8 mph - N/A   Overcast
11:53 AM 55.9 °F 54.0 °F 93% 29.99 in 10.0 mi SSW 11.5 mph - N/A   Overcast
12:44 PM 55.4 °F 53.6 °F 94% 30.00 in 1.8 mi SSW 13.8 mph - N/A   Overcast
12:53 PM 55.0 °F 54.0 °F 96% 30.01 in 1.0 mi SW 13.8 mph - 0.00 in Rain Light Rain
1:00 PM 55.4 °F 55.4 °F 100% 30.00 in 2.0 mi SW 10.4 mph - 0.00 in Rain Light Rain
1:08 PM 55.4 °F 55.4 °F 100% 30.00 in 10.0 mi SSW 9.2 mph - 0.00 in   Overcast
1:23 PM 55.4 °F 53.6 °F 94% 30.00 in 1.8 mi SW 12.7 mph - 0.00 in   Overcast
1:32 PM 55.4 °F 55.4 °F 100% 30.01 in 2.5 mi SW 9.2 mph - 0.00 in Rain Light Rain
1:39 PM 55.4 °F 53.6 °F 94% 30.01 in 9.0 mi SW 9.2 mph - 0.00 in   Overcast
1:53 PM 55.0 °F 54.0 °F 96% 30.02 in 6.0 mi SW 10.4 mph - 0.00 in   Overcast
2:02 PM 55.4 °F 55.4 °F 100% 30.01 in 7.0 mi SW 9.2 mph - N/A   Overcast
2:18 PM 55.4 °F 55.4 °F 100% 30.01 in 1.8 mi SW 8.1 mph - N/A   Overcast
2:53 PM 55.0 °F 55.0 °F 100% 30.03 in 1.0 mi SW 9.2 mph - 0.01 in Rain Light Rain
3:09 PM 55.4 °F 55.4 °F 100% 30.02 in 3.0 mi SSW 10.4 mph - 0.00 in   Overcast
3:16 PM 55.4 °F 55.4 °F 100% 30.02 in 4.0 mi SSW 10.4 mph - 0.00 in   Overcast
3:25 PM 55.4 °F 55.4 °F 100% 30.02 in 2.5 mi SSW 9.2 mph - 0.00 in   Overcast
3:28 PM 55.4 °F 55.4 °F 100% 30.02 in 4.0 mi SSW 9.2 mph - 0.00 in   Overcast
3:48 PM 55.4 °F 53.6 °F 94% 30.03 in 1.8 mi SSW 10.4 mph - 0.00 in Rain Light Rain
3:53 PM 55.0 °F 54.0 °F 96% 30.04 in 1.2 mi SSW 8.1 mph - 0.00 in Rain Light Rain
3:57 PM 55.4 °F 55.4 °F 100% 30.03 in 2.5 mi SW 6.9 mph - 0.00 in Rain Light Rain
3:59 PM 55.4 °F 55.4 °F 100% 30.03 in 4.0 mi SW 8.1 mph - 0.00 in   Overcast
4:19 PM 55.4 °F 53.6 °F 94% 30.03 in 2.5 mi SSW 5.8 mph - 0.01 in   Overcast
4:24 PM 55.4 °F 55.4 °F 100% 30.02 in 1.8 mi SSW 5.8 mph - 0.01 in   Overcast
4:35 PM 55.4 °F 55.4 °F 100% 30.02 in 2.0 mi South 3.5 mph - 0.01 in   Overcast
4:42 PM 55.4 °F 53.6 °F 94% 30.03 in 3.0 mi SSW 3.5 mph - 0.01 in   Overcast
4:53 PM 55.0 °F 54.0 °F 96% 30.04 in 2.5 mi SSW 4.6 mph - 0.01 in   Overcast
5:03 PM 53.6 °F 53.6 °F 100% 30.03 in 7.0 mi SSW 3.5 mph - N/A   Overcast
5:13 PM 55.4 °F 53.6 °F 94% 30.02 in 1.8 mi South 4.6 mph - N/A   Overcast
5:25 PM 55.4 °F 53.6 °F 94% 30.02 in 3.0 mi SSW 4.6 mph - N/A   Overcast
5:53 PM 55.0 °F 54.0 °F 96% 30.03 in 9.0 mi South 5.8 mph - N/A   Overcast
6:53 PM 54.0 °F 54.0 °F 100% 30.03 in 6.0 mi South 3.5 mph - N/A   Overcast
7:42 PM 53.6 °F 53.6 °F 100% 30.00 in 1.8 mi SE 3.5 mph - N/A   Overcast
7:53 PM 55.0 °F 54.0 °F 96% 30.01 in 1.0 mi East 3.5 mph - N/A   Overcast
8:05 PM 55.4 °F 53.6 °F 94% 30.00 in 4.0 mi East 3.5 mph - N/A   Overcast
8:53 PM 54.0 °F 54.0 °F 100% 30.00 in 3.0 mi SSE 4.6 mph - N/A   Overcast
9:01 PM 53.6 °F 53.6 °F 100% 29.99 in 2.0 mi SE 3.5 mph - N/A   Overcast
9:08 PM 53.6 °F 53.6 °F 100% 29.99 in 1.2 mi ESE 3.5 mph - N/A   Overcast
9:16 PM 53.6 °F 53.6 °F 100% 29.99 in 3.0 mi SE 4.6 mph - N/A   Overcast
9:53 PM 54.0 °F 54.0 °F 100% 30.01 in 9.0 mi South 4.6 mph - N/A   Overcast
10:53 PM 55.0 °F 53.1 °F 93% 29.99 in 10.0 mi SSE 5.8 mph - N/A   Overcast
11:53 PM 54.0 °F 53.1 °F 97% 29.97 in 9.0 mi SE 3.5 mph - 0.01 in Rain Light Rain